Location: Benque
(43.2594°N, 0.9178°E)
Time: 01:58:59
(UTC+00:00)

COSMO-SKYMED 1 - Pass Details

Date: 24 January 2020
Orbit: 621 x 623 km, 97.9° (Epoch: 19 February)

Event Time Altitude Azimuth Distance (km) Brightness Sun altitude
Rises 18:09:10 0° 11° (NNE) 2,912 5.8 -13.2°
Reaches altitude 10° 18:11:22 10° 11° (N) 2,001 4.9 -13.6°
Maximum altitude 18:15:43 83° 286° (WNW) 633 2.6 -14.3°
Drops below altitude 10° 18:20:03 10° 197° (SSW) 1,985 5.5 -15.1°
Sets 18:22:13 0° 197° (SSW) 2,886 6.4 -15.5°
